Regional Weather Roundup
Issued by NWS Sterling, VA

Home | Current Version | Previous Version | Graphics & Text | Print | Product List | Glossary On
Versions: 1 2 3 4 5 6 7 8 9 10 11 12 13 14 15 16 17 18 19 20 21 22 23 24 25 26 27 28 29 30 31 32 33 34 35 36 37 38 39 40 41 42 43 44 45 46 47 48 49 50
811
ASUS41 KLWX 301510
RWRLWX

REGIONAL WEATHER ROUNDUP
NATIONAL WEATHER SERVICE BALTIMORE MD/WASHINGTON DC
1100 AM EDT SAT APR 30 2016

Note: "FAIR" indicates few or no clouds below 12,000 feet
with no significant weather and/or obstructions to visibility.
 TC=TEMPERATURE CELSIUS

 * =Non NWS site. Station does not report precipitation (e.g. rain,
    snow, etc.), thunder, or fog.

DCZ001-MDZ009-015-VAZ040>042-051-053>054-301600-
WASHINGTON METRO

CITY           SKY/WX    TMP DP  RH WIND       PRES   REMARKS
WASHINGTON NAT CLOUDY    53  47  79 NE8       30.20F
DULLES         CLOUDY    54  47  77 E6        30.19F
ANDREWS AFB    CLOUDY    52  47  83 E7        30.18F
FT BELVOIR     CLOUDY    54  47  76 VRB1      30.19F
QUANTICO       CLOUDY    55  48  77 E5        30.21S
COLLEGE PARK*  CLOUDY    52  45  76 CALM      30.20S
LEESBURG*      CLOUDY    54  54 100 CALM      30.20F FOG
MANASSAS*      CLOUDY    55  50  82 CALM      30.19F
GAITHERSBURG*  CLOUDY    50  45  81 E5        30.23F

$$

MDZ006>007-011-014-301600-
BALTIMORE METRO

CITY           SKY/WX    TMP DP  RH WIND       PRES   REMARKS
BWI AIRPORT    CLOUDY    53  45  74 NE7       30.20S
MD SCIENCE CTR   N/A     54  45  71 MISG      30.21S
MARTIN STATE   CLOUDY    54  48  82 E5        30.23S
ANNAPOLIS      CLOUDY    53  47  79 MISG      30.20F
FORT MEADE*    CLOUDY    52  45  76 E8        30.22F

$$

MDZ012-015-019>023-301600-
MARYLAND EASTERN SHORE

CITY           SKY/WX    TMP DP  RH WIND       PRES   REMARKS
OCEAN CITY     CLOUDY    53  47  79 NE8       30.21R
SALISBURY      CLOUDY    53  48  83 NE6       30.20R
CAMBRIDGE*     CLOUDY    52  46  82 E7        30.20S
EASTON*        CLOUDY   N/A N/A N/A E6        30.24S

$$

MDZ017>025-301600-
SOUTHERN MARYLAND

CITY           SKY/WX    TMP DP  RH WIND       PRES   REMARKS
PATUXENT RIVER CLOUDY    54  47  77 E8        30.20S
ST INIGOES       N/A    N/A N/A N/A MISG        N/A
LEONARDTOWN*   CLOUDY    52  46  82 E5        30.21F

$$

MDZ003>005-301600-
NORTH CENTRAL MARYLAND

CITY           SKY/WX    TMP DP  RH WIND       PRES   REMARKS
FREDERICK*     CLOUDY    48  48 100 NE8       30.23S FOG
HAGERSTOWN APT CLOUDY    53  46  77 NE7       30.18S
WESTMINSTER*   CLOUDY    50  46  87 E5        30.18F

$$

MDZ501>502-301600-
WESTERN MARYLAND

CITY           SKY/WX    TMP DP  RH WIND       PRES   REMARKS
OAKLAND*       CLOUDY    46  45  93 SE13      30.12R
CUMBERLAND*    CLOUDY    55  50  82 S6        30.20R

$$

VAZ025>031-301600-
SHENANDOAH VALLEY

CITY           SKY/WX    TMP DP  RH WIND       PRES   REMARKS
WINCHESTER*    CLOUDY    54  50  87 E6        30.17S HAZE
FRONT ROYAL*   CLOUDY    54  50  87 SE5       30.16S
LURAY*         CLOUDY    55  54  94 CALM      30.16S
NEW MARKET*    CLOUDY    54  51  90 N5        30.16R
STAUNTON*      CLOUDY    57  55  92 SW3       30.18R
WAYNESBORO*    CLOUDY    52  49  90 MISG      30.16R

$$

WVZ021-048>050-054>055-301600-
EASTERN WEST VIRGINIA PANHANDLE

CITY           SKY/WX    TMP DP  RH WIND       PRES   REMARKS
MARTINSBURG    CLOUDY    51  49  92 NE6       30.17F FOG
PETERSBURG*    CLOUDY    57  52  85 CALM      30.15S HAZE

$$

VAZ036>039-050-301600-
CENTRAL FOOTHILLS

CITY           SKY/WX    TMP DP  RH WIND       PRES   REMARKS
CHARLOTTESVILL CLOUDY    55  49  80 SE3       30.18R
CULPEPER*      CLOUDY    55  51  86 CALM      30.20R
ORANGE*        CLOUDY    54  54 100 CALM      30.21R
GORDONSVILLE*  CLOUDY    54  51  90 E3        30.18R
WARRENTON*     CLOUDY    56  47  72 CALM      30.18S

$$

VAZ055>057-301600-
NORTH AND CENTRAL PIEDMONT

CITY           SKY/WX    TMP DP  RH WIND       PRES   REMARKS
FREDERICKSBRG* CLOUDY    54  52  94 E3        30.19S
STAFFORD*      CLOUDY    53  47  81 E6        30.23S

$$

NCZ024-NYZ072-PAZ021-071-VAZ022-071-301600-
OTHER REGIONAL OBSERVATIONS

CITY           SKY/WX    TMP DP  RH WIND       PRES   REMARKS
NEW YORK CITY  CLOUDY    56  37  49 VRB7      30.22F
PHILADELPHIA   PTSUNNY   56  41  57 E7        30.22S
PITTSBURGH     CLOUDY    57  44  62 VRB7      30.10F
ROANOKE        DRIZZLE   56  54  93 SE8       30.17R FOG
RICHMOND       CLOUDY    56  50  80 E8        30.18S
RALEIGH        CLOUDY    61  56  83 SE9       30.15R

$$

ANZ530>537-301600-
MARINE OBSERVATIONS

STATION/POSITION TIME  TEMP    WIND        PRES
                       AIR SEA DIR/SP/G
                 (UTC) (F)     (DEG/KT/KT) (MB)
THOMAS PT LIGHT  1500   51 57   30/ 10/ 11 1023.8F
BALT KEY BRIDGE  1400   50      50/  5/  6 1022.9R
COVE POINT       1400   50      60/  5/  8 1023.3R
LEWISETTA        1406   52 59   80/  5/  7 1022.3R
SOLOMONS ISLAND  1400   51 60   80/  5/  8   N/A
PINEY POINT      1400          100/  6/  7   N/A

$$





USA.gov is the U.S. government's official web portal to all federal, state and local government web resources and services.